Location: *
(28.3744°N, 81.5492°W)
Time: 04:15:16
(UTC+00:00)

Geosat - Pass Details

Date: 15 June 2025
Orbit: 758 x 761 km, 108.1° (Epoch: 11 July)

Event Time Altitude Azimuth Distance (km) Brightness Sun altitude
Rises 03:07:44 0° 19° (NNE) 3,222 7.7 -28.4°
Reaches altitude 10° 03:10:01 10° 17° (NNE) 2,294 6.9 -28.7°
Enters shadow 03:14:43 65° 315° (NW) 833 4.2 -29.3°
